Location: Gipe Farm
(40.9466°N, 95.5370°W)
Time: 14:57:05
(UTC-06:00)

Daily predictions for brighter satellites

Satellite Brightness Start Highest point End
(mag) Time Altitude Azimuth Time Altitude Azimuth Time Altitude Azimuth
CZ-2C R/B 4.4 17:44:16 10° SSW 17:48:31 32° W 17:52:43 10° NNW
Cosmos 1295 Rocket 4.5 17:44:07 10° N 17:50:12 64° E 17:56:17 10° SSE
CZ-4 R/B 1.6 17:46:09 10° SSE 17:50:17 55° ENE 17:54:26 10° N
Cosmos 1076 Rocket 4.0 17:47:11 10° SSE 17:51:15 39° E 17:55:20 10° NNE
USA 116 4.2 17:53:16 10° NNE 17:57:32 59° ESE 18:02:19 10° S
AQUARIUS 4.3 17:55:28 10° S 17:59:57 81° WSW 18:04:29 10° NNW
ALOS 2.9 17:57:21 10° SE 18:01:31 34° ENE 18:05:44 10° N
FENGYUN 3A 4.1 17:57:55 10° SE 18:02:47 37° ENE 18:07:42 10° N
Meteor 1-28 Rocket 3.6 18:00:48 10° N 18:04:36 70° WNW 18:08:22 10° SSW
TSX-5 4.2 18:03:01 10° S 18:05:49 30° ESE 18:08:51 10° NE
Cosmos 1315 Rocket 3.2 18:06:48 10° SSE 18:10:27 39° E 18:14:08 10° NNE
Cosmos 1346 Rocket 4.0 18:08:10 10° NNE 18:11:06 20° ENE 18:14:00 10° ESE
Cosmos 1726 2.4 18:08:26 10° NNW 18:12:06 71° W 18:15:44 10° S
Cosmos 2366 rocket 4.2 18:06:21 10° N 18:12:24 50° ENE 18:18:21 10° SSE
Ariane Rocket 3.4 18:07:38 10° S 18:12:39 68° WSW 18:17:43 10° NNW
METEOR-M 4.1 18:13:15 10° SSE 18:18:36 83° ENE 18:23:59 10° NNW
COSMOS 2406 4.3 18:15:26 10° SSE 18:19:55 24° ESE 18:23:40 13° NE
BREEZE M DEB (TANK) 4.3 18:16:34 10° WSW 18:21:09 76° NNW 18:38:03 13° ENE
Cosmos 1766 Rocket 3.8 18:17:04 10° SSE 18:21:13 47° E 18:25:22 10° NNE
H-2A R/B 3.9 18:18:27 10° ESE 18:21:21 21° ENE 18:24:18 10° NNE
Okean 3 Rocket 3.8 18:21:20 10° S 18:25:52 79° W 18:30:25 10° N
SPOT 3 Rocket 3.6 18:23:57 10° SE 18:28:55 52° ENE 18:33:55 10° N
Meteor 2-10 4.4 18:24:32 10° NNW 18:29:33 67° W 18:34:37 10° S
Tiangong 1 0.4 18:28:34 10° WNW 18:31:02 65° N 18:32:00 31° E
SKYMED 2 3.5 18:27:49 10° NNE 18:32:11 85° ESE 18:36:31 10° SSW
Cosmos 1943 4.5 18:28:15 10° SW 18:33:29 39° WNW 18:38:45 10° N
Cosmos 1455 3.4 18:30:27 10° NNE 18:33:30 22° ENE 18:36:30 10° SE
Cosmos 1777 Rocket 4.1 18:31:20 10° N 18:36:29 53° ENE 18:41:36 10° SE
Cosmos 1328 3.7 18:33:29 10° S 18:37:29 81° E 18:41:32 10° N
CZ-2C R/B 4.4 18:33:22 10° N 18:38:01 59° WNW 18:42:33 10° SSW
YAOGAN 1 3.2 18:35:18 10° S 18:39:32 59° W 18:43:50 10° NNW
Cosmos 1400 Rocket 4.2 18:35:45 10° SSW 18:39:34 40° WNW 18:43:28 10° N
Cosmos 371 Rocket 4.3 18:39:21 10° SSE 18:43:17 26° E 18:44:15 24° E
Cosmos 1151 Rocket 3.8 18:42:05 10° NNE 18:45:57 29° ENE 18:49:47 10° SE
Cosmos 44 2.9 18:42:08 10° SSW 18:46:26 87° ESE 18:49:37 19° NNE
EO 1 Del DPAF 3.1 18:44:18 10° NNE 18:48:09 79° ESE 18:51:59 10° S
OAO 3 Rocket 4.1 18:47:01 10° WSW 18:51:23 39° S 18:54:22 18° SE
Meteor 2-2 Rocket 4.2 18:47:13 10° N 18:52:59 89° W 18:58:38 10° S
MOS 1 4.5 18:47:34 10° S 18:53:12 76° WSW 18:58:52 10° NNW
Landsat 4 4.3 18:52:19 10° N 18:56:01 57° WNW 18:59:39 10° SSW
Cosmos 1626 2.1 18:53:51 10° S 18:57:33 80° W 19:01:17 10° N
BREEZE-M DEB (TANK) 2.7 18:55:18 10° WSW 18:59:33 41° NNW 19:00:16 33° NNE
GEOS 3 Rocket 4.0 18:59:26 28° E 19:01:44 43° NE 19:06:48 10° NNW
Cosmos 1703 3.1 18:58:51 10° S 19:02:48 72° E 19:05:23 21° NNE
Cosmos 2098 Rocket 3.7 19:01:06 10° N 19:06:21 79° E 19:12:55 10° S
Cosmos 2058 2.8 19:02:16 10° S 19:06:22 61° E 19:08:12 31° NNE
Iridium 96 4.5 19:06:45 10° N 19:10:16 82° E 19:14:20 10° S
Cosmos 1408 Rocket 4.4 19:08:56 10° SSW 19:13:06 50° W 19:17:18 10° N
Cosmos 1515 Rocket 3.4 19:08:49 10° N 19:13:09 66° E 19:17:26 10° SSE
ERS-2 2.7 19:12:10 10° S 19:15:47 59° W 19:19:26 10° NNW
Cosmos 44 Rocket 3.6 19:11:55 10° SW 19:16:33 62° NW 19:18:58 28° NNE
Cosmos 1656 Rocket 4.1 19:11:12 10° NNW 19:16:36 61° WSW 19:22:02 10° S
COSMO-SKYMED 1 4.5 19:16:20 10° N 19:20:04 29° WNW 19:23:48 10° SW
Cosmos 2151 2.8 19:15:59 10° S 19:20:14 84° E 19:21:50 38° NNE
Cosmos 1500 Rocket 3.4 19:21:15 10° S 19:25:42 80° E 19:26:42 54° NNE
Envisat 4.4 19:28:45 24° NNE 19:28:45 24° NNE 19:30:54 10° N
Cosmos 1570 Rocket 4.0 19:21:46 10° S 19:26:58 57° ESE 19:27:13 56° E
NOSS 3-4 (A) 4.0 19:20:33 10° NW 19:27:37 73° WSW 19:35:12 10° SSE
NOSS 3-4 (C) 4.0 19:20:39 10° NW 19:27:43 73° WSW 19:35:19 10° SSE
Cosmos 2228 Rocket 3.3 19:26:55 10° NNW 19:31:31 72° W 19:36:04 10° S
Lacrosse 5 3.8 19:31:40 10° S 19:33:08 16° SSE 19:33:08 16° SSE
Cosmos 332 Rocket 3.8 19:32:37 10° SSW 19:37:31 81° WNW 19:38:32 56° N
Cosmos 1743 Rocket 4.2 19:35:47 10° SSW 19:40:03 53° W 19:42:18 26° NNW
Meteor 2-15 4.3 19:35:20 10° S 19:41:27 89° W 19:47:35 10° N
Thor Agena Rocket 3.6 19:47:54 52° N 19:49:14 80° WNW 19:54:26 10° SSW
COSMOS 2406 4.0 19:58:21 10° SW 20:03:52 48° WNW 20:05:48 35° NNW
Cosmos 1821 Rocket 4.3 19:58:00 10° NNW 20:04:04 65° W 20:10:13 10° S
Cosmos 1535 Rocket 4.5 19:58:43 10° N 20:04:52 75° W 20:10:56 10° S
Cosmos 909 Rocket 4.4 20:07:08 10° NW 20:13:44 62° WSW 20:15:03 51° SSW
CZ-4C R/B 4.3 20:20:28 10° SSW 20:21:06 14° SSW 20:21:06 14° SSW
